FRS135 EDEL-EDDE

Flight info

Callsign FRS135
Flight time 1h 27m
Altitude 2500
Route DCT
Aircraft C172/L-SG/L

Departure

Time 2026-05-04 18:21
Airport Langenlonsheim Airfield (EDEL)

Arrival

Time 2026-05-04 19:48
Airport Erfurt-Weimar Airport (EDDE)
Time Latitude Longitude Altitude Speed Heading
2026-05-04 18:05 49.91103 7.90838 292 ft 0 kts 280°
2026-05-04 18:17 49.91097 7.90832 292 ft 5 kts 181°
2026-05-04 18:18 49.91091 7.90839 296 ft 2 kts 112°
2026-05-04 18:18 49.91082 7.90867 294 ft 1 kts 168°
2026-05-04 18:18 49.91060 7.90861 294 ft 6 kts 194°
2026-05-04 18:18 49.91044 7.90854 296 ft 0 kts 199°
2026-05-04 18:19 49.91027 7.90844 295 ft 0 kts 184°
2026-05-04 18:19 49.90942 7.90835 299 ft 27 kts 196°
2026-05-04 18:20 49.90611 7.90682 306 ft 70 kts 191°
2026-05-04 18:20 49.90179 7.90540 451 ft 77 kts 191°
2026-05-04 18:20 49.89710 7.90357 576 ft 83 kts 197°
2026-05-04 18:20 49.89116 7.90187 599 ft 90 kts 176°
2026-05-04 18:21 49.88580 7.90494 759 ft 83 kts 140°
2026-05-04 18:21 49.88223 7.91069 825 ft 86 kts 122°
2026-05-04 18:21 49.88036 7.91996 915 ft 95 kts 94°
2026-05-04 18:21 49.88051 7.93023 1075 ft 101 kts 84°
2026-05-04 18:22 49.88183 7.94089 1258 ft 94 kts 72°
2026-05-04 18:22 49.88496 7.94895 1275 ft 101 kts 32°
2026-05-04 18:22 49.89177 7.94813 1217 ft 106 kts 335°
2026-05-04 18:22 49.89849 7.94657 1269 ft 94 kts
2026-05-04 18:23 49.90492 7.94659 1145 ft 102 kts
2026-05-04 18:23 49.91165 7.95110 1068 ft 103 kts 35°
2026-05-04 18:23 49.91758 7.95692 1051 ft 103 kts 28°
2026-05-04 18:23 49.92390 7.96177 992 ft 104 kts 21°
2026-05-04 18:24 49.93028 7.96672 1048 ft 100 kts 36°
2026-05-04 18:24 49.93577 7.97250 1191 ft 101 kts 31°
2026-05-04 18:24 49.94189 7.97888 1280 ft 111 kts 34°
2026-05-04 18:24 49.94859 7.98532 1370 ft 115 kts 32°
2026-05-04 18:25 49.95362 7.99467 1471 ft 118 kts 82°
2026-05-04 18:25 49.95240 8.00517 1554 ft 115 kts 106°
2026-05-04 18:25 49.95181 8.01751 1626 ft 115 kts 82°
2026-05-04 18:25 49.95496 8.02887 1713 ft 115 kts 63°
2026-05-04 18:26 49.95771 8.03711 1800 ft 114 kts 62°
2026-05-04 18:26 49.96080 8.04589 1878 ft 115 kts 61°
2026-05-04 18:26 49.96551 8.05569 1945 ft 115 kts 29°
2026-05-04 18:26 49.97196 8.05597 1985 ft 114 kts 333°
2026-05-04 18:27 49.97686 8.04671 2063 ft 112 kts 301°
2026-05-04 18:27 49.98026 8.03828 2171 ft 111 kts 301°
2026-05-04 18:27 49.98428 8.02803 2297 ft 111 kts 301°
2026-05-04 18:27 49.98618 8.02324 2321 ft 111 kts 302°
2026-05-04 18:28 49.99022 8.01301 2398 ft 111 kts 302°
2026-05-04 18:28 49.99332 8.00567 2443 ft 112 kts 308°
2026-05-04 18:28 49.99950 7.99792 2445 ft 117 kts 333°
2026-05-04 18:28 50.00748 7.99423 2447 ft 122 kts 345°
2026-05-04 18:29 50.01372 7.99272 2441 ft 125 kts 355°
2026-05-04 18:29 50.02178 7.99292 2436 ft 123 kts
2026-05-04 18:29 50.02997 7.99570 2436 ft 122 kts 19°
2026-05-04 18:29 50.03783 8.00033 2436 ft 122 kts 20°
2026-05-04 18:30 50.05316 8.01080 2433 ft 119 kts 28°
2026-05-04 18:30 50.06045 8.01702 2430 ft 117 kts 28°
2026-05-04 18:30 50.06757 8.02307 2430 ft 117 kts 28°
2026-05-04 18:31 50.07459 8.02904 2428 ft 116 kts 29°
2026-05-04 18:31 50.07854 8.03242 2427 ft 116 kts 28°
2026-05-04 18:31 50.08566 8.03849 2428 ft 116 kts 28°
2026-05-04 18:31 50.09099 8.04305 2432 ft 118 kts 28°
2026-05-04 18:32 50.09820 8.04919 2429 ft 118 kts 28°
2026-05-04 18:32 50.10346 8.05365 2428 ft 117 kts 28°
2026-05-04 18:32 50.11055 8.05973 2427 ft 116 kts 28°
2026-05-04 18:32 50.11765 8.06583 2428 ft 116 kts 28°
2026-05-04 18:33 50.12473 8.07190 2427 ft 116 kts 28°
2026-05-04 18:33 50.13145 8.07766 2427 ft 116 kts 28°
2026-05-04 18:33 50.13847 8.08369 2428 ft 117 kts 28°
2026-05-04 18:33 50.14559 8.08984 2430 ft 117 kts 28°
2026-05-04 18:34 50.15272 8.09594 2429 ft 117 kts 28°
2026-05-04 18:34 50.15984 8.10205 2429 ft 116 kts 28°
2026-05-04 18:34 50.16698 8.10817 2428 ft 117 kts 28°
2026-05-04 18:34 50.17410 8.11429 2428 ft 116 kts 28°
2026-05-04 18:35 50.18120 8.12040 2426 ft 117 kts 29°
2026-05-04 18:35 50.18767 8.12596 2429 ft 116 kts 28°
2026-05-04 18:35 50.19292 8.13046 2427 ft 117 kts 28°
2026-05-04 18:35 50.19872 8.13545 2428 ft 117 kts 28°
2026-05-04 18:36 50.20476 8.14066 2428 ft 118 kts 28°
2026-05-04 18:36 50.20925 8.14452 2435 ft 118 kts 29°
2026-05-04 18:36 50.21281 8.14763 2427 ft 119 kts 28°
2026-05-04 18:36 50.22011 8.15346 2427 ft 117 kts 22°
2026-05-04 18:37 50.22781 8.15749 2429 ft 116 kts 15°
2026-05-04 18:37 50.23552 8.16093 2428 ft 117 kts 15°
2026-05-04 18:37 50.24083 8.16306 2430 ft 117 kts
2026-05-04 18:37 50.25015 8.16312 2424 ft 115 kts 354°
2026-05-04 18:38 50.25806 8.16469 2433 ft 117 kts 20°
2026-05-04 18:38 50.26507 8.17098 2441 ft 117 kts 39°
2026-05-04 18:38 50.27045 8.18067 2439 ft 118 kts 53°
2026-05-04 18:38 50.27490 8.19143 2442 ft 118 kts 61°
2026-05-04 18:39 50.27781 8.20358 2444 ft 123 kts 82°
2026-05-04 18:39 50.27868 8.21686 2439 ft 122 kts 82°
2026-05-04 18:39 50.27921 8.22989 2440 ft 120 kts 99°
2026-05-04 18:39 50.27827 8.24273 2455 ft 120 kts 87°
2026-05-04 18:40 50.27971 8.25585 2430 ft 123 kts 80°
2026-05-04 18:40 50.28110 8.26496 2431 ft 121 kts 73°
2026-05-04 18:40 50.28449 8.27504 2426 ft 120 kts 50°
2026-05-04 18:40 50.29037 8.28435 2437 ft 120 kts 45°
2026-05-04 18:41 50.29627 8.29360 2430 ft 120 kts 44°
2026-05-04 18:41 50.30216 8.30276 2428 ft 119 kts 45°
2026-05-04 18:41 50.30632 8.30892 2448 ft 116 kts 40°
2026-05-04 18:41 50.31269 8.31658 2463 ft 115 kts 46°
2026-05-04 18:42 50.31740 8.32657 2456 ft 114 kts 55°
2026-05-04 18:42 50.32211 8.33651 2451 ft 114 kts 55°
2026-05-04 18:42 50.32689 8.34656 2444 ft 116 kts 55°
2026-05-04 18:42 50.33184 8.35686 2410 ft 119 kts 54°
2026-05-04 18:43 50.33678 8.36715 2414 ft 117 kts 54°
2026-05-04 18:43 50.34003 8.37389 2410 ft 118 kts 54°
2026-05-04 18:43 50.34346 8.38118 2409 ft 117 kts 54°
2026-05-04 18:43 50.34595 8.38679 2410 ft 118 kts 54°
2026-05-04 18:44 50.34904 8.39384 2409 ft 118 kts 54°
2026-05-04 18:44 50.35212 8.40087 2408 ft 119 kts 55°
2026-05-04 18:44 50.35833 8.41498 2409 ft 119 kts 55°
2026-05-04 18:44 50.36152 8.42220 2410 ft 119 kts 54°
2026-05-04 18:45 50.36194 8.42315 2409 ft 119 kts 54°
2026-05-04 18:45 50.36392 8.42767 2407 ft 119 kts 55°
2026-05-04 18:45 50.36842 8.43784 2410 ft 120 kts 55°
2026-05-04 18:45 50.37313 8.44856 2407 ft 119 kts 54°
2026-05-04 18:46 50.37780 8.45917 2405 ft 118 kts 54°
2026-05-04 18:46 50.38246 8.46979 2406 ft 118 kts 54°
2026-05-04 18:46 50.38690 8.47986 2408 ft 119 kts 54°
2026-05-04 18:46 50.39162 8.49059 2407 ft 120 kts 54°
2026-05-04 18:47 50.39605 8.50073 2405 ft 119 kts 54°
2026-05-04 18:47 50.40074 8.51143 2406 ft 119 kts 55°
2026-05-04 18:47 50.40541 8.52208 2405 ft 118 kts 55°
2026-05-04 18:47 50.41004 8.53267 2404 ft 118 kts 54°
2026-05-04 18:48 50.41410 8.54190 2405 ft 119 kts 54°
2026-05-04 18:48 50.41861 8.55219 2405 ft 119 kts 54°
2026-05-04 18:48 50.42328 8.56285 2408 ft 119 kts 55°
2026-05-04 18:48 50.42700 8.57132 2406 ft 119 kts 54°
2026-05-04 18:49 50.43169 8.58202 2405 ft 119 kts 54°
2026-05-04 18:49 50.43636 8.59269 2404 ft 118 kts 54°
2026-05-04 18:49 50.44081 8.60292 2403 ft 118 kts 55°
2026-05-04 18:49 50.44541 8.61351 2407 ft 117 kts 55°
2026-05-04 18:50 50.44804 8.61955 2407 ft 117 kts 55°
2026-05-04 18:50 50.45188 8.62838 2407 ft 118 kts 54°
2026-05-04 18:50 50.45649 8.63899 2407 ft 118 kts 54°
2026-05-04 18:50 50.46113 8.64979 2406 ft 119 kts 54°
2026-05-04 18:51 50.46577 8.66057 2413 ft 120 kts 55°
2026-05-04 18:51 50.47048 8.67146 2409 ft 120 kts 55°
2026-05-04 18:51 50.47509 8.68231 2406 ft 119 kts 58°
2026-05-04 18:51 50.47801 8.69440 2408 ft 119 kts 70°
2026-05-04 18:52 50.48071 8.70671 2409 ft 119 kts 70°
2026-05-04 18:52 50.48174 8.71367 2409 ft 120 kts 83°
2026-05-04 18:52 50.48161 8.72705 2421 ft 121 kts 96°
2026-05-04 18:52 50.48084 8.73859 2398 ft 119 kts 96°
2026-05-04 18:53 50.48007 8.75132 2394 ft 117 kts 90°
2026-05-04 18:53 50.48080 8.76376 2397 ft 114 kts 79°
2026-05-04 18:53 50.48204 8.77570 2401 ft 114 kts 80°
2026-05-04 18:53 50.48331 8.78795 2408 ft 115 kts 80°
2026-05-04 18:54 50.48458 8.80034 2401 ft 115 kts 79°
2026-05-04 18:54 50.48589 8.81268 2413 ft 113 kts 79°
2026-05-04 18:54 50.48710 8.82416 2408 ft 116 kts 80°
2026-05-04 18:54 50.48841 8.83677 2403 ft 117 kts 80°
2026-05-04 18:55 50.48969 8.84930 2406 ft 118 kts 79°
2026-05-04 18:55 50.49179 8.86984 2415 ft 113 kts 79°
2026-05-04 18:55 50.49308 8.88199 2410 ft 113 kts 79°
2026-05-04 18:56 50.49435 8.89406 2407 ft 111 kts 80°
2026-05-04 18:56 50.49556 8.90548 2406 ft 111 kts 80°
2026-05-04 18:56 50.49642 8.91353 2405 ft 111 kts 79°
2026-05-04 18:56 50.49767 8.92505 2411 ft 112 kts 79°
2026-05-04 18:57 50.49905 8.93742 2407 ft 118 kts 82°
2026-05-04 18:57 50.50037 8.94991 2396 ft 117 kts 79°
2026-05-04 18:57 50.50168 8.96265 2410 ft 120 kts 78°
2026-05-04 18:57 50.50301 8.97459 2406 ft 116 kts 80°
2026-05-04 18:58 50.50430 8.98663 2411 ft 115 kts 80°
2026-05-04 18:58 50.50561 8.99895 2405 ft 114 kts 79°
2026-05-04 18:58 50.50744 9.01090 2405 ft 112 kts 76°
2026-05-04 18:58 50.50927 9.02281 2407 ft 112 kts 76°
2026-05-04 18:59 50.51107 9.03490 2404 ft 117 kts 75°
2026-05-04 18:59 50.51294 9.04713 2405 ft 114 kts 76°
2026-05-04 18:59 50.51477 9.05918 2405 ft 114 kts 76°
2026-05-04 18:59 50.51659 9.07120 2402 ft 112 kts 76°
2026-05-04 19:00 50.51842 9.08309 2402 ft 112 kts 76°
2026-05-04 19:00 50.51948 9.08994 2400 ft 112 kts 76°
2026-05-04 19:00 50.52023 9.09469 2413 ft 112 kts 75°
2026-05-04 19:00 50.52213 9.10677 2404 ft 114 kts 77°
2026-05-04 19:01 50.52394 9.11883 2406 ft 114 kts 76°
2026-05-04 19:01 50.52580 9.13096 2406 ft 114 kts 76°
2026-05-04 19:01 50.52767 9.14307 2405 ft 114 kts 76°
2026-05-04 19:01 50.52953 9.15500 2405 ft 113 kts 76°
2026-05-04 19:02 50.53139 9.16696 2403 ft 112 kts 76°
2026-05-04 19:02 50.53324 9.17874 2397 ft 109 kts 76°
2026-05-04 19:02 50.53499 9.18992 2402 ft 102 kts 76°
2026-05-04 19:02 50.53660 9.19971 2423 ft 110 kts 76°
2026-05-04 19:03 50.53823 9.20980 2679 ft 99 kts 75°
2026-05-04 19:03 50.53985 9.22004 2866 ft 97 kts 75°
2026-05-04 19:03 50.54169 9.23055 2940 ft 108 kts 76°
2026-05-04 19:03 50.54367 9.24250 2959 ft 117 kts 76°
2026-05-04 19:04 50.54579 9.25523 2958 ft 123 kts 76°
2026-05-04 19:04 50.54797 9.26833 2958 ft 125 kts 76°
2026-05-04 19:04 50.55014 9.28161 2953 ft 126 kts 76°
2026-05-04 19:04 50.55237 9.29501 2952 ft 128 kts 76°
2026-05-04 19:05 50.55460 9.30838 2950 ft 125 kts 76°
2026-05-04 19:05 50.55603 9.31705 2947 ft 123 kts 76°
2026-05-04 19:05 50.55737 9.32516 2943 ft 122 kts 76°
2026-05-04 19:05 50.55945 9.33758 2950 ft 122 kts 76°
2026-05-04 19:06 50.56158 9.35051 2938 ft 125 kts 76°
2026-05-04 19:06 50.56370 9.36373 2955 ft 126 kts 75°
2026-05-04 19:06 50.56582 9.37722 2950 ft 129 kts 76°
2026-05-04 19:06 50.56776 9.39039 2943 ft 125 kts 76°
2026-05-04 19:07 50.56986 9.40359 2942 ft 123 kts 76°
2026-05-04 19:07 50.57191 9.41651 2940 ft 122 kts 75°
2026-05-04 19:07 50.57390 9.42944 2955 ft 123 kts 75°
2026-05-04 19:07 50.57584 9.44242 2943 ft 121 kts 76°
2026-05-04 19:08 50.57777 9.45536 2944 ft 121 kts 76°
2026-05-04 19:08 50.57981 9.46821 2944 ft 121 kts 76°
2026-05-04 19:08 50.58178 9.48100 2940 ft 120 kts 76°
2026-05-04 19:08 50.58370 9.49389 2941 ft 122 kts 76°
2026-05-04 19:09 50.58580 9.50718 2928 ft 129 kts 80°
2026-05-04 19:09 50.58694 9.51617 2966 ft 127 kts 75°
2026-05-04 19:09 50.58966 9.53292 2927 ft 129 kts 76°
2026-05-04 19:09 50.59156 9.54630 2942 ft 124 kts 76°
2026-05-04 19:10 50.59362 9.55930 2952 ft 124 kts 75°
2026-05-04 19:10 50.59516 9.57040 2968 ft 128 kts 76°
2026-05-04 19:10 50.59721 9.58442 2928 ft 131 kts 75°
2026-05-04 19:10 50.59940 9.59800 2925 ft 131 kts 76°
2026-05-04 19:11 50.60131 9.61113 2938 ft 115 kts 75°
2026-05-04 19:11 50.60310 9.62325 2934 ft 112 kts 76°
2026-05-04 19:11 50.60482 9.63519 2941 ft 111 kts 75°
2026-05-04 19:11 50.60658 9.64700 2961 ft 112 kts 74°
2026-05-04 19:12 50.60833 9.65897 2936 ft 112 kts 77°
2026-05-04 19:12 50.61284 9.68196 2952 ft 108 kts 57°
2026-05-04 19:12 50.61719 9.69158 2950 ft 108 kts 52°
2026-05-04 19:13 50.62159 9.70095 2952 ft 109 kts 52°
2026-05-04 19:13 50.62585 9.70994 2959 ft 109 kts 52°
2026-05-04 19:13 50.63050 9.71965 2960 ft 111 kts 52°
2026-05-04 19:13 50.63500 9.72930 2952 ft 110 kts 52°
2026-05-04 19:14 50.63951 9.73886 2959 ft 112 kts 52°
2026-05-04 19:14 50.64420 9.74883 2953 ft 113 kts 51°
2026-05-04 19:14 50.64888 9.75871 2955 ft 113 kts 52°
2026-05-04 19:14 50.65356 9.76863 2967 ft 114 kts 52°
2026-05-04 19:15 50.65833 9.77874 2943 ft 115 kts 52°
2026-05-04 19:15 50.66308 9.78880 2947 ft 114 kts 52°
2026-05-04 19:15 50.66653 9.79623 2957 ft 113 kts 52°
2026-05-04 19:15 50.67126 9.80614 2958 ft 114 kts 51°
2026-05-04 19:16 50.67447 9.81282 2950 ft 116 kts 52°
2026-05-04 19:16 50.67925 9.82299 2967 ft 116 kts 51°
2026-05-04 19:16 50.68397 9.83303 2952 ft 115 kts 52°
2026-05-04 19:16 50.68821 9.84187 2951 ft 113 kts 51°
2026-05-04 19:17 50.69305 9.85193 2949 ft 117 kts 53°
2026-05-04 19:17 50.69799 9.86221 2958 ft 117 kts 52°
2026-05-04 19:17 50.70285 9.87236 2950 ft 115 kts 53°
2026-05-04 19:17 50.70770 9.88223 2951 ft 113 kts 52°
2026-05-04 19:18 50.71242 9.89223 2953 ft 113 kts 52°
2026-05-04 19:18 50.71689 9.90163 2945 ft 113 kts 52°
2026-05-04 19:18 50.72145 9.91126 2954 ft 109 kts 52°
2026-05-04 19:18 50.72604 9.92091 2954 ft 112 kts 52°
2026-05-04 19:19 50.72955 9.93151 2946 ft 107 kts 66°
2026-05-04 19:19 50.73216 9.94220 2950 ft 103 kts 70°
2026-05-04 19:19 50.73449 9.95292 2956 ft 104 kts 70°
2026-05-04 19:19 50.73683 9.96377 2947 ft 104 kts 70°
2026-05-04 19:20 50.73917 9.97479 2957 ft 109 kts 71°
2026-05-04 19:20 50.74165 9.98594 2958 ft 107 kts 70°
2026-05-04 19:20 50.74409 9.99715 2960 ft 109 kts 70°
2026-05-04 19:20 50.74646 10.00804 2957 ft 111 kts 70°
2026-05-04 19:21 50.74884 10.01899 2966 ft 114 kts 70°
2026-05-04 19:21 50.75116 10.02959 2965 ft 113 kts 70°
2026-05-04 19:21 50.75368 10.04059 2961 ft 113 kts 70°
2026-05-04 19:21 50.75627 10.05245 2953 ft 115 kts 71°
2026-05-04 19:22 50.75881 10.06386 2963 ft 114 kts 70°
2026-05-04 19:22 50.76149 10.07560 2959 ft 114 kts 65°
2026-05-04 19:22 50.76481 10.08726 2960 ft 117 kts 65°
2026-05-04 19:22 50.76811 10.09892 2966 ft 116 kts 65°
2026-05-04 19:23 50.77146 10.11057 2961 ft 117 kts 65°
2026-05-04 19:23 50.77485 10.12220 2959 ft 117 kts 65°
2026-05-04 19:23 50.77823 10.13399 2957 ft 118 kts 65°
2026-05-04 19:23 50.78114 10.14440 2952 ft 117 kts 65°
2026-05-04 19:24 50.78417 10.15509 2957 ft 116 kts 65°
2026-05-04 19:24 50.78751 10.16669 2949 ft 115 kts 65°
2026-05-04 19:24 50.79082 10.17801 2947 ft 115 kts 65°
2026-05-04 19:24 50.79347 10.18709 2956 ft 116 kts 65°
2026-05-04 19:25 50.79645 10.19771 2954 ft 117 kts 64°
2026-05-04 19:25 50.79980 10.20961 2956 ft 119 kts 65°
2026-05-04 19:25 50.80296 10.22082 2958 ft 116 kts 65°
2026-05-04 19:25 50.80626 10.23252 2957 ft 117 kts 65°
2026-05-04 19:26 50.80943 10.24378 2956 ft 116 kts 65°
2026-05-04 19:26 50.81271 10.25541 2957 ft 115 kts 65°
2026-05-04 19:26 50.81520 10.26423 2953 ft 116 kts 65°
2026-05-04 19:26 50.81768 10.27315 2939 ft 118 kts 65°
2026-05-04 19:27 50.82102 10.28486 2940 ft 118 kts 65°
2026-05-04 19:27 50.82435 10.29669 2973 ft 115 kts 65°
2026-05-04 19:27 50.82744 10.30766 3107 ft 107 kts 65°
2026-05-04 19:27 50.83062 10.31887 3083 ft 114 kts 65°
2026-05-04 19:28 50.83374 10.33010 3140 ft 109 kts 65°
2026-05-04 19:28 50.83669 10.34062 3275 ft 101 kts 65°
2026-05-04 19:28 50.83937 10.34976 3402 ft 97 kts 59°
2026-05-04 19:28 50.84259 10.35887 3542 ft 93 kts 60°
2026-05-04 19:29 50.84592 10.36837 3542 ft 104 kts 60°
2026-05-04 19:29 50.84948 10.37847 3535 ft 111 kts 60°
2026-05-04 19:29 50.85374 10.38866 3536 ft 112 kts 54°
2026-05-04 19:29 50.85836 10.39883 3537 ft 115 kts 54°
2026-05-04 19:30 50.86299 10.40905 3538 ft 114 kts 59°
2026-05-04 19:30 50.86659 10.42018 3534 ft 113 kts 66°
2026-05-04 19:30 50.86976 10.43141 3527 ft 110 kts 66°
2026-05-04 19:30 50.87278 10.44231 3522 ft 107 kts 66°
2026-05-04 19:31 50.87574 10.45318 3523 ft 108 kts 66°
2026-05-04 19:31 50.87869 10.46400 3522 ft 107 kts 66°
2026-05-04 19:31 50.88160 10.47467 3521 ft 107 kts 66°
2026-05-04 19:31 50.88440 10.48492 3522 ft 108 kts 66°
2026-05-04 19:32 50.88701 10.49579 3520 ft 106 kts 73°
2026-05-04 19:32 50.88858 10.50370 3517 ft 105 kts 72°
2026-05-04 19:32 50.89078 10.51475 3471 ft 107 kts 72°
2026-05-04 19:32 50.89284 10.52525 3368 ft 103 kts 72°
2026-05-04 19:33 50.89489 10.53581 3221 ft 100 kts 72°
2026-05-04 19:33 50.89703 10.54699 2956 ft 110 kts 72°
2026-05-04 19:33 50.89903 10.55900 2715 ft 117 kts 78°
2026-05-04 19:33 50.90077 10.57194 2444 ft 122 kts 77°
2026-05-04 19:34 50.90261 10.58501 2171 ft 120 kts 78°
2026-05-04 19:34 50.90441 10.59775 1963 ft 114 kts 78°
2026-05-04 19:34 50.90560 10.60804 2024 ft 104 kts 82°
2026-05-04 19:34 50.90577 10.61944 2026 ft 108 kts 89°
2026-05-04 19:35 50.90591 10.63143 2033 ft 110 kts 89°
2026-05-04 19:35 50.90603 10.64360 2034 ft 111 kts 89°
2026-05-04 19:35 50.90564 10.65562 2028 ft 107 kts 96°
2026-05-04 19:35 50.90532 10.66740 2028 ft 108 kts 92°
2026-05-04 19:36 50.90503 10.67943 2033 ft 111 kts 92°
2026-05-04 19:36 50.90592 10.69140 2032 ft 112 kts 76°
2026-05-04 19:36 50.90842 10.70303 2032 ft 112 kts 63°
2026-05-04 19:36 50.91214 10.71401 2029 ft 114 kts 65°
2026-05-04 19:37 50.91381 10.72475 2026 ft 114 kts 76°
2026-05-04 19:37 50.91549 10.73467 2012 ft 109 kts 81°
2026-05-04 19:37 50.91654 10.74502 2010 ft 106 kts 84°
2026-05-04 19:37 50.91663 10.75642 2012 ft 103 kts 92°
2026-05-04 19:38 50.91672 10.76796 2020 ft 106 kts 92°
2026-05-04 19:38 50.91677 10.77927 2016 ft 106 kts 93°
2026-05-04 19:38 50.91680 10.79089 2013 ft 104 kts 92°
2026-05-04 19:38 50.91688 10.80162 2013 ft 102 kts 92°
2026-05-04 19:39 50.91672 10.81310 2018 ft 97 kts 98°
2026-05-04 19:39 50.91570 10.82339 2003 ft 88 kts 105°
2026-05-04 19:39 50.91469 10.83209 1989 ft 76 kts 105°
2026-05-04 19:39 50.91397 10.83870 1968 ft 67 kts 104°
2026-05-04 19:40 50.91279 10.84599 2050 ft 76 kts 111°
2026-05-04 19:40 50.91123 10.85345 2159 ft 79 kts 115°
2026-05-04 19:40 50.90882 10.86157 2223 ft 83 kts 124°
2026-05-04 19:40 50.90571 10.86911 2188 ft 82 kts 129°
2026-05-04 19:41 50.90222 10.87679 2037 ft 84 kts 130°
2026-05-04 19:41 50.89959 10.88472 2018 ft 84 kts 115°
2026-05-04 19:41 50.89739 10.89323 2046 ft 81 kts 115°
2026-05-04 19:41 50.89592 10.90188 2070 ft 82 kts 105°
2026-05-04 19:42 50.89534 10.91079 1964 ft 83 kts 97°
2026-05-04 19:42 50.89475 10.91955 1942 ft 79 kts 101°
2026-05-04 19:42 50.89465 10.92831 1891 ft 80 kts 90°
2026-05-04 19:42 50.89539 10.93710 1902 ft 79 kts 77°
2026-05-04 19:43 50.89724 10.94332 1913 ft 81 kts 64°
2026-05-04 19:43 50.90014 10.94992 1978 ft 80 kts 48°
2026-05-04 19:43 50.90394 10.95643 1887 ft 84 kts 52°
2026-05-04 19:43 50.90601 10.96257 1831 ft 83 kts 79°
2026-05-04 19:44 50.90729 10.96663 1780 ft 84 kts 45°
2026-05-04 19:44 50.91237 10.97196 1708 ft 84 kts 30°
2026-05-04 19:44 50.91773 10.97569 1593 ft 85 kts 26°
2026-05-04 19:44 50.92306 10.97933 1503 ft 85 kts 25°
2026-05-04 19:45 50.92810 10.98424 1376 ft 85 kts 36°
2026-05-04 19:45 50.93305 10.98892 1325 ft 82 kts 32°
2026-05-04 19:45 50.93785 10.99389 1274 ft 81 kts 33°
2026-05-04 19:45 50.94268 10.99853 1311 ft 82 kts 30°
2026-05-04 19:46 50.94809 11.00226 1340 ft 91 kts 18°
2026-05-04 19:46 50.95377 11.00543 1405 ft 85 kts 21°
2026-05-04 19:46 50.95940 11.00836 1424 ft 86 kts 17°
2026-05-04 19:46 50.96479 11.01047 1532 ft 83 kts
2026-05-04 19:47 50.97063 11.01175 1500 ft 82 kts
2026-05-04 19:47 50.97631 11.01191 1370 ft 84 kts 349°
2026-05-04 19:47 50.98054 11.00617 1134 ft 81 kts 281°
2026-05-04 19:47 50.97968 10.99783 1170 ft 77 kts 257°
2026-05-04 19:48 50.97893 10.98891 1160 ft 86 kts 263°
2026-05-04 19:48 50.97848 10.97996 1127 ft 74 kts 269°
2026-05-04 19:48 50.97872 10.97195 1033 ft 68 kts 273°
2026-05-04 19:48 50.97905 10.96664 1024 ft 36 kts 277°
2026-05-04 19:49 50.97927 10.96368 1023 ft 21 kts 277°
2026-05-04 19:49 50.97878 10.96294 1022 ft 12 kts 185°
2026-05-04 19:49 50.97776 10.96269 1022 ft 10 kts 181°
2026-05-04 19:49 50.97727 10.96321 1022 ft 9 kts 101°
2026-05-04 19:50 50.97719 10.96399 1022 ft 6 kts 110°
2026-05-04 19:50 50.97677 10.96435 1022 ft 5 kts 185°
2026-05-04 19:50 50.97642 10.96439 1022 ft 4 kts 160°
2026-05-04 19:50 50.97599 10.96473 1022 ft 9 kts 172°
2026-05-04 19:51 50.97573 10.96461 1022 ft 3 kts 265°
2026-05-04 19:51 50.97586 10.96428 1022 ft 1 kts 286°
2026-05-04 19:51 50.97586 10.96426 1022 ft 0 kts 263°